CAPE
1978 1944 1746 1843 1770 1694 1537 1610 1444 1328 1299 1292 1278 1152 1171 1203 1272 1205 1257 1167 1161 1106 998 771 791 789 655 566 495 418 534 868 580 598 795 861 925 937 986 1009 931 1084 907 962 1271 976 1037 976 1011 1088 1163 1192 1337 1322 1313 1490 1232 1253 1166 1170 1161 1197 1043 1139 974 961 998 973 847 964 878 912 1036 1023 1368 1232 1287 1420 1234 1020 838 658 856 1025 984
1908 2013 1839 1733 1820 1634 1582 1444 1342 1270 1166 1096 1107 1131 1034 1096 1054 1025 1019 1017 1093 988 852 884 818 671 573 547 464 431 679 575 638 857 1142 1056 1080 965 891 868 1058 1124 972 1051 1061 1109 1164 1254 1198 1222 1230 1213 1426 1208 1339 1225 1304 1112 1105 1182 1143 1103 1027 920 918 936 889 995 917 833 1115 877 903 851 1228 1211 1078 1102 1071 979 903 780 897 985 850
1990 2030 1924 1732 1685 1528 1510 1426 1313 1195 1112 1151 1139 1041 980 964 1057 1019 990 955 961 804 772 858 727 694 670 470 458 456 421 387 449 684 1091 1406 1249 1150 1082 906 914 1242 1201 1002 1082 1082 1446 1435 1122 1228 1134 1360 1349 1306 1228 1146 1176 1249 1259 1116 1169 1128 1040 834 910 942 928 947 915 939 884 929 1016 918 1102 916 901 814 652 535 521 556 629 572 384
2088 2056 1943 1903 1620 1650 1428 1372 1305 1265 1245 1085 973 864 944 993 990 960 982 954 880 864 744 808 733 643 659 537 510 442 375 372 392 521 678 952 891 839 821 1027 1082 1273 1261 1190 1098 1190 1264 1158 1174 1173 1294 1340 1138 1073 1115 1070 1081 1056 1127 1082 1080 1040 1080 971 852 734 710 946 900 631 877 734 797 771 866 744 546 498 482 467 482 465 426 379 202
2105 2081 1890 1668 1552 1536 1392 1342 1366 1133 1043 988 924 849 811 860 882 882 758 933 836 836 782 774 721 655 564 547 542 459 407 329 343 493 588 1020 1159 938 950 884 849 1320 1337 1316 1104 1112 1065 1175 1056 1104 1101 992 1012 983 1119 1145 1117 1092 1114 1132 1069 1018 993 846 738 703 523 616 394 502 534 452 625 759 907 703 329 337 397 328 282 538 318 136 88
2058 1975 1827 1592 1427 1450 1423 1472 1239 1157 1096 1034 938 838 893 887 795 788 796 830 798 856 756 699 674 651 494 599 587 500 398 368 379 463 732 882 1095 964 855 926 963 1111 1509 1458 1270 1215 1111 1123 1001 1044 1016 1066 1215 1287 1181 1146 1138 1116 1022 898 825 713 568 483 495 532 524 458 329 380 260 207 126 230 408 414 329 406 395 294 503 612 551 232 157
2166 2082 1864 1588 1454 1450 1546 1498 1413 1256 1208 1052 889 899 954 866 875 882 867 904 855 864 785 746 676 628 576 569 585 525 479 434 448 448 679 911 1055 1128 885 962 892 999 1088 1148 1232 1166 1122 1019 918 894 954 938 1192 1165 1135 1120 1118 1015 966 750 601 464 403 390 371 342 255 226 285 238 176 128 157 262 311 305 614 883 834 663 428 330 540 751 584
2123 1952 1804 1556 1395 1658 1667 1530 1363 1367 1207 1053 1040 938 870 846 871 875 903 932 851 843 797 716 732 664 610 622 586 556 470 384 353 355 493 900 980 1128 958 740 783 876 744 1153 1020 1036 994 916 713 870 1235 1344 1284 1284 1212 1054 1084 1037 866 573 369 364 377 377 340 272 78 52 79 95 65 40 149 174 487 231 202 417 405 350 223 349 510 586 335
1914 1801 1790 1616 1537 1541 1635 1555 1406 1316 1357 1188 1059 924 848 948 906 919 982 922 879 826 788 796 780 704 707 670 657 567 374 334 381 438 427 741 1268 1359 1215 1016 960 860 939 1093 948 905 803 600 737 1037 1279 1232 1123 1223 1193 1086 1074 974 822 539 412 385 421 378 230 42 16 22 22 18 12 19 29 32 30 60 265 176 96 70 161 269 194 144 88
1953 1869 1694 1564 1462 1762 1636 1562 1487 1421 1410 1127 983 917 976 996 991 1011 961 928 893 868 848 803 751 778 779 758 716 708 661 733 533 462 518 805 1149 1169 1214 1142 937 827 832 895 957 890 686 566 813 1240 1294 1168 1297 1306 1147 1047 984 856 645 548 459 424 381 342 168 104 86 80 86 201 287 276 189 161 164 104 66 134 1093 902 418 274 324 275 208
2012 1957 1831 1824 1647 1755 1601 1581 1588 1488 1400 1186 1064 1069 1088 1069 1047 941 941 974 970 958 903 820 794 839 822 812 809 794 963 955 911 898 992 1102 1065 1078 1031 978 1056 996 1047 1072 1060 970 624 681 925 1244 1242 1204 1223 1071 976 1021 992 835 631 460 383 337 286 139 7 41 51 36 62 15 29 49 67 149 306 302 326 782 859 930 957 951 913 943 969
1955 1960 1966 1974 1876 1758 1634 1672 1736 1546 1261 1263 1245 1193 1197 1125 1091 1083 1062 1122 1210 1049 1066 1016 879 927 810 847 832 1464 1733 1614 1635 1463 1309 1324 1262 1345 1283 1213 1178 1105 1040 1046 1125 798 739 837 1086 1175 1132 1167 1192 1060 950 898 885 703 497 368 331 298 278 86 59 87 56 38 34 39 80 104 428 720 937 964 910 922 955 952 984 887 887 967 943
1871 1945 1927 2060 1780 1811 1764 1789 1755 1532 1434 1384 1335 1272 1262 1207 1145 1185 1144 1395 1404 1311 1369 1224 1188 1133 1096 960 1281 1656 1561 1478 1376 1420 1457 1430 1668 1318 1186 1196 1114 1125 1230 1204 970 962 924 951 1134 1166 1087 1179 1248 1116 976 835 672 575 435 352 302 281 236 75 78 71 96 131 73 72 132 190 617 945 904 923 869 774 765 741 734 673 672 738 745
2025 2066 2015 2042 1903 1940 1840 1799 1843 1808 1687 1568 1432 1340 1308 1329 1272 1357 1484 1476 1420 1401 1433 1436 1360 1315 1228 1222 1494 1727 1541 1408 1456 1645 1598 1496 1609 1406 1127 1214 1141 1196 1246 1067 1036 1013 1077 1192 1243 1274 1110 1106 1123 967 847 761 618 487 394 331 268 200 162 125 76 49 60 54 93 93 345 386 303 393 425 455 477 535 496 554 520 476 497 541 613
2144 2103 2133 1915 1980 2117 2049 1940 1936 1831 1696 1682 1570 1486 1477 1464 1463 1493 1528 1583 1537 1467 1504 1546 1520 1411 1403 1516 1443 1391 1417 1377 1603 1806 1654 1503 1564 1411 1339 1098 1143 1275 1211 1092 1057 956 1067 1389 1481 1408 1105 979 986 882 790 698 548 463 429 317 247 145 35 84 85 83 58 42 87 33 109 186 312 316 284 246 216 255 265 282 332 397 403 362 370
2220 2200 1892 2033 1997 2203 1939 2000 1908 1718 1727 1816 1682 1607 1590 1595 1616 1626 1644 1658 1706 1631 1555 1604 1655 1588 1493 1532 1449 1299 1367 1626 1849 1785 1706 1680 1703 1558 1499 1274 1195 1109 1206 1159 999 973 1255 1406 1496 1496 1226 940 939 871 785 640 547 469 341 282 253 218 88 87 135 144 96 112 182 234 160 236 440 208 180 213 239 196 278 274 228 175 180 174 197
2083 2141 2017 2053 2078 2206 2036 1792 1820 1785 1847 1895 1774 1715 1699 1706 1689 1692 1652 1713 1821 1713 1544 1593 1793 1783 1596 1506 1416 1321 1474 1990 1914 1879 1847 1799 1601 1427 1341 1270 1286 1219 1224 1151 1059 1223 1402 1506 1571 1590 1323 1009 989 943 780 636 548 410 334 298 255 218 166 147 152 143 153 185 172 172 178 196 276 248 232 173 150 164 200 134 138 156 150 125 125
2067 1962 2060 2048 2027 2066 2082 2031 1930 1998 2068 1922 1907 1844 1870 1802 1758 1722 1677 1760 1879 1790 1585 1616 1824 1873 1659 1500 1460 1475 1750 2012 2013 1929 1767 1516 1422 1371 1245 1291 1191 1314 1225 1055 1046 1281 1430 1723 1695 1589 1327 1083 1075 887 743 644 484 378 322 283 223 194 184 150 184 170 198 174 147 169 138 177 214 182 208 182 212 217 185 203 150 96 89 74 38
2141 2144 2083 2086 1981 1923 2080 2028 1974 1976 1914 1824 1678 1653 2040 1929 1878 1803 1750 1822 1897 1865 1746 1709 1813 1838 1685 1555 1463 1465 1938 2112 2019 1960 1708 1537 1496 1310 1354 1204 1247 1273 1317 1170 1159 1356 1418 1664 1827 1590 1264 1120 999 857 717 621 502 394 312 282 237 228 186 203 195 178 155 129 154 232 209 322 365 215 191 166 171 164 155 108 120 99 115 93 60
2208 2235 2084 1996 1979 1949 2099 1996 1882 1920 1922 1821 1704 1784 2158 2094 2017 1900 1862 1913 1971 1949 1923 1776 1814 1786 1564 1370 1416 1732 1784 2104 1953 1844 1724 1619 1408 1143 1355 1321 1186 1349 1386 1204 1220 1315 1510 1637 1651 1575 1260 1181 988 828 716 602 459 361 306 283 272 168 255 264 188 183 205 183 214 148 171 255 253 178 146 128 126 84 123 114 53 34 8 38 24
2086 2252 2072 1909 1927 1963 2110 1953 1888 1942 1930 1903 1817 1802 1816 2021 2039 1996 2001 2034 2049 2023 1861 1687 1700 1800 1794 1704 1747 1740 1828 1783 1768 1769 1815 1654 1480 1401 1488 1430 1460 1275 1402 1255 1136 1241 1337 1389 1429 1331 1280 1127 911 798 702 552 450 385 378 307 208 268 294 292 296 248 216 180 220 122 362 292 94 94 114 106 80 46 38 46 84 96 96 58 28
1694 1865 1872 1937 2010 2045 1928 1940 1920 2040 1934 1822 1828 1836 1826 1933 1880 1636 1593 1855 2084 2138 2022 1905 1919 1669 1868 1671 1825 2264 1849 1814 1743 1804 1782 1582 1457 1466 1465 1390 1338 1263 1435 1276 1216 1186 1201 1192 1140 1079 947 933 848 659 672 617 552 478 326 216 218 271 287 278 285 258 233 214 156 108 124 116 84 83 63 75 80 66 65 58 43 59 42 33 15
1496 1606 1752 2041 1948 1964 1839 1953 1877 1917 1910 1899 1853 1885 1757 1868 1830 1813 1687 1841 1959 1931 1725 1711 1608 1552 1667 1596 2338 2298 2008 2015 1986 1683 1743 1729 1464 1514 1338 1375 1432 1406 1314 1232 1273 1393 1425 1329 1074 923 999 996 961 907 860 782 589 399 242 212 282 236 228 255 263 228 220 246 190 137 96 113 127 121 98 80 70 82 69 74 78 50 26 29 15
1345 1430 1482 1785 1961 2004 2031 2061 1770 1869 1691 1704 1815 1736 1754 1849 1782 1760 1623 1710 1785 1662 1597 1563 1531 1645 1476 1769 1820 2180 2243 2385 1535 1840 1897 1641 1474 1486 1294 1368 1327 1373 1254 1154 1302 1344 1147 1214 1265 1128 912 742 1082 1161 964 866 466 252 248 284 240 195 174 218 189 270 266 180 132 90 123 97 58 94 121 122 95 55 39 23 28 24 7 15 1
1303 1416 1578 1584 1831 2183 2206 2019 2054 1995 1861 1928 1868 1704 1741 1580 1608 1619 1534 1587 1545 1586 1719 1638 1551 1585 1607 1832 1642 2116 2201 2157 1888 1912 1959 1347 1384 1370 1292 1204 1264 1200 1122 900 839 1038 1064 1009 1020 964 923 840 844 1027 827 501 191 133 189 210 257 270 193 212 249 273 216 232 207 78 70 93 109 74 46 15 28 39 36 33 5 12 0 0 0
1212 1327 1526 1785 1899 2113 2276 2122 1976 1892 1846 1876 2004 1841 1820 1626 1550 1493 1539 1475 1485 1544 1670 1706 1664 1716 1671 1608 1624 1982 2316 2039 1966 2109 2106 1391 1283 1237 1134 1128 1095 970 864 620 694 986 1199 1083 921 958 1046 940 930 862 566 332 157 144 165 224 292 293 208 183 267 260 273 259 121 87 133 70 89 96 66 40 53 45 33 24 0 0 1 1 3
1124 1381 1583 1904 1918 2113 2140 2001 1922 1984 1828 1924 2098 1903 1887 1776 1508 1613 1420 1566 1491 1601 1781 2034 1772 2128 2015 2110 1954 1988 2055 2136 2000 2020 2070 1705 1233 1192 1073 1040 870 765 743 568 576 891 1165 1192 1157 1084 1041 991 782 536 366 233 192 152 185 215 284 274 257 226 250 310 280 207 184 133 168 97 50 49 61 62 74 48 53 24 15 1 1 2 1
1169 1297 1629 2031 1981 2069 2173 1972 2023 1863 1914 1909 1886 1925 1858 1719 1621 1629 1434 1453 1475 1631 1903 1884 1889 2084 1851 2168 1957 1699 1942 1988 1990 1814 1872 1856 1405 1066 1066 954 812 652 616 466 485 741 1105 1034 777 700 823 876 635 397 291 220 174 160 190 246 330 301 317 264 254 156 194 202 130 114 74 74 19 11 37 32 24 27 28 30 15 10 10 1 1
934 1283 1607 1848 1933 2036 2140 1902 1933 1828 1853 1838 1779 1907 1991 1870 1680 1531 1421 1653 1552 1446 1776 1652 1770 1855 1943 1951 1757 1862 1652 1700 1650 1649 1820 1901 1640 1042 1040 935 774 608 496 481 522 688 1021 1027 740 606 716 800 541 354 260 219 287 257 218 220 399 478 440 266 183 233 208 151 145 67 28 26 44 88 37 57 76 41 46 25 25 34 35 25 5
973 1151 1403 1626 1703 2002 1906 1907 1990 1887 1903 1874 1797 1731 1737 1631 1541 1537 1552 1826 1567 1500 1324 1544 1638 1558 1391 1304 1656 1740 1667 1700 1784 1795 1651 1820 1481 956 962 982 758 667 654 692 596 742 988 1137 878 547 559 666 530 292 253 244 223 221 221 371 579 480 372 350 276 206 202 183 239 62 42 78 146 701 326 202 330 207 165 150 127 93 86 33 0
1053 1050 1200 1576 1688 1725 1747 1945 1939 1965 1920 1705 1711 1672 1728 1570 1550 1565 1948 1549 1501 1431 1407 1517 1416 1393 1354 1350 1492 1369 1294 1535 1545 1524 1419 1445 1137 989 836 876 794 624 757 642 670 693 879 1064 1054 735 656 583 553 329 262 254 269 254 418 496 358 348 240 380 387 291 172 130 146 231 114 413 769 1031 964 598 528 540 313 139 132 123 109 42 2
1166 1061 1187 1413 1550 1592 1690 1730 1814 1744 1734 1616 1640 1481 1554 1620 1505 1546 1534 1582 1615 1489 1432 1502 1479 1357 1428 1372 1286 1310 1170 1317 1415 1296 1096 1169 1083 1004 1054 945 832 746 726 677 622 528 578 893 998 1076 906 722 528 452 532 422 314 276 512 514 331 343 384 367 413 390 242 188 126 123 147 161 1011 1234 1250 1057 800 650 526 434 193 68 79 42 38
1261 1298 1276 1220 1360 1551 1488 1570 1568 1571 1582 1647 1565 1465 1610 1543 1540 1402 1551 1449 1519 1541 1500 1550 1490 1581 1611 1416 1364 1192 1184 1166 1382 1278 1064 1042 1151 943 1066 1013 1000 939 718 751 777 605 518 752 984 1081 723 526 414 361 327 432 433 524 590 380 372 348 433 296 406 322 269 213 128 94 211 304 601 1126 1064 877 689 617 558 539 448 498 136 52 93
1150 1222 1299 1350 1415 1476 1524 1498 1478 1544 1566 1658 1572 1526 1433 1471 1392 1566 1628 1654 1636 1662 1575 1457 1432 1528 1524 1435 1243 1218 1257 1396 1296 1202 955 1021 1190 1010 986 968 1037 1271 1093 663 708 580 516 541 868 964 682 573 478 396 354 355 415 456 478 549 529 514 472 425 433 424 354 240 180 174 245 404 410 519 639 764 669 622 578 446 428 488 286 236 193
1051 1179 1222 1357 1420 1494 1326 1261 1210 1382 1504 1441 1504 1450 1407 1322 1472 1520 1584 1614 1547 1560 1595 1490 1408 1410 1363 1404 1300 1104 1047 1136 1202 1232 971 1006 947 1103 1078 1054 1069 893 883 730 675 617 518 482 673 760 755 695 610 432 456 452 412 472 475 602 632 517 422 507 470 431 312 326 282 305 393 385 421 441 416 578 802 598 550 370 357 396 422 136 202
1309 1077 1267 1232 1191 1294 1505 1261 1254 1328 1394 1334 1407 1582 1388 1496 1460 1409 1654 1349 1287 1324 1428 1395 1415 1427 1256 1275 1140 1054 1010 1182 1098 1038 1104 986 1075 1161 1071 1157 935 877 925 989 820 617 648 636 772 788 655 686 566 431 442 498 626 593 553 696 650 656 759 576 496 526 295 337 261 304 373 375 440 406 532 593 1095 841 460 384 475 384 343 315 164
1664 1550 1286 1154 1250 1242 1239 1056 1159 1117 1194 1161 1270 1354 1431 1456 1574 1598 1528 1444 1287 1232 1353 1435 1247 1482 1445 1261 1108 1117 1083 1030 1000 1026 1008 942 910 1098 646 723 846 928 1039 1078 849 735 876 797 1099 1009 1221 761 660 460 456 416 454 610 577 662 495 880 706 836 718 356 328 230 294 277 302 376 545 635 755 834 976 722 273 260 348 511 576 342 352
1947 1829 1692 1467 1403 1141 1112 1020 1019 1134 1155 1153 1184 1224 1299 1371 1429 1404 1324 1350 1414 1319 1213 1243 1135 1130 1304 1418 1296 1199 1017 1039 962 946 960 843 829 759 690 543 874 1048 873 868 1063 1130 1161 1074 914 518 805 746 747 586 430 393 403 463 624 672 664 877 551 738 598 601 367 200 252 264 232 370 351 451 386 572 488 222 377 229 289 333 634 757 645
2106 1981 1811 1714 1608 1542 1494 1275 968 1016 1032 1146 1238 1294 1165 1163 1258 1292 1246 1246 1172 1244 1296 1112 1061 1079 1113 1139 1127 1260 1012 962 681 778 927 889 771 720 772 673 612 862 790 757 776 634 710 1201 907 482 497 607 649 574 404 364 366 395 422 493 509 934 382 336 680 940 460 437 294 263 307 432 540 442 470 368 188 124 219 283 297 363 324 594 719
2216 2032 2127 1920 1770 1655 1612 1638 1590 1450 1332 1200 1229 1262 1181 1128 1209 1224 1224 1138 1008 1040 937 816 1061 1108 1200 1186 1257 1023 986 947 762 692 794 818 809 736 713 765 475 658 603 516 501 427 489 615 739 501 387 264 367 265 287 360 384 358 320 335 352 305 315 454 836 823 532 420 340 307 530 563 717 446 325 198 112 179 165 187 258 192 294 488 594
2080 1911 1966 1841 1728 1688 1639 1649 1649 1580 1528 1444 1316 1258 1248 1154 1098 1187 1216 1071 999 780 782 716 891 1108 1210 1140 1058 946 866 897 929 804 740 750 738 696 704 798 433 320 439 469 403 289 524 641 528 538 455 255 190 249 292 377 324 279 250 272 229 189 347 767 746 682 532 786 445 307 502 510 619 490 244 33 81 217 275 302 332 358 354 604 572
2025 1993 1844 1573 1588 1595 1532 1504 1463 1392 1402 1403 1366 1250 1138 1138 1273 1161 1148 1124 1011 914 819 740 821 781 748 843 774 594 619 734 768 829 708 613 807 696 639 676 505 301 372 380 404 328 240 271 256 200 174 189 225 292 283 294 275 262 210 193 179 54 145 246 511 466 419 886 724 298 295 513 411 288 58 85 359 347 297 275 384 448 480 520 618
2078 2061 2045 1974 1856 1634 1460 1422 1347 1246 1200 1316 1332 1204 1088 1106 1092 1091 1102 1034 1057 1068 988 1000 904 796 786 634 450 466 527 552 606 615 441 572 668 612 619 641 648 345 292 385 408 324 294 352 310 325 294 152 112 136 377 471 530 441 506 390 195 100 45 200 524 522 619 356 535 528 264 783 340 181 130 287 300 437 337 217 388 528 650 638 581
2275 2148 2135 2087 1847 1489 1386 1299 1349 1278 1327 1446 1391 1211 1055 1290 1313 1157 1176 1211 1072 1010 1092 1043 802 845 776 739 696 670 712 659 507 347 222 400 688 559 560 616 591 504 311 254 198 396 396 402 331 196 231 216 179 196 212 371 600 457 392 295 268 294 201 78 112 164 228 312 506 561 323 750 427 141 246 204 334 396 231 247 452 583 649 674 531
2351 2282 2181 2008 1636 1374 1548 1580 1243 1388 1451 1612 1515 1260 1270 1179 1162 1053 1186 1076 1072 993 876 724 768 779 814 752 787 744 774 610 680 551 190 265 393 422 400 383 443 451 288 211 297 445 503 336 166 90 202 288 248 257 219 286 649 702 676 385 264 234 356 229 81 108 117 202 303 174 169 198 411 177 338 320 349 355 206 199 385 408 500 491 513
2206 2116 1994 1790 1619 1534 1502 1536 1844 1486 1382 1468 1539 1412 1364 1270 1245 1223 1159 1060 989 927 876 739 508 662 874 769 818 599 773 844 769 627 377 322 297 382 332 274 238 252 330 370 392 453 466 231 258 321 330 341 244 222 187 162 358 466 534 1067 664 341 313 237 169 140 201 338 190 144 195 210 599 317 367 402 199 234 189 243 386 415 402 485 410
1895 1931 1764 1485 1337 1304 1416 1517 1476 1618 1650 1619 1654 1612 1519 1560 1434 1438 1484 1404 1339 989 916 822 624 798 1167 795 719 687 656 721 696 550 389 335 412 172 214 188 97 86 307 356 299 276 348 218 273 250 255 214 176 205 207 266 305 269 286 405 402 186 564 264 236 374 234 176 175 154 218 203 225 472 288 352 348 275 143 137 292 272 399 363 336
1605 1600 1568 1402 1180 1105 1343 1526 1480 1251 1058 1339 1457 1459 1360 1298 1392 1428 1578 1479 1197 1176 1053 1000 824 644 650 696 784 613 651 577 543 570 514 382 240 271 153 144 197 131 156 176 172 188 187 268 336 174 258 234 320 268 244 345 210 246 280 210 279 373 627 675 448 343 440 258 120 102 122 179 180 354 390 236 377 322 178 188 190 213 307 196 292
1366 1423 1346 1220 1156 1235 1331 1391 1445 1342 1141 995 1123 1251 1250 1171 1031 997 970 1050 1104 1116 1179 1064 836 652 509 683 606 530 559 692 684 634 471 236 348 331 209 281 303 247 380 435 558 274 252 354 338 330 230 366 305 382 421 474 374 466 268 265 304 671 785 752 698 808 589 411 211 95 65 59 149 180 259 201 209 225 253 169 112 128 264 209 145
1284 1310 1224 1130 1187 1269 1263 1257 1313 1327 1221 1066 979 1104 1247 1262 1136 809 872 943 1041 1098 952 821 715 725 500 634 698 640 570 621 681 662 455 319 342 317 314 295 353 417 466 491 284 249 266 380 494 449 340 414 367 365 386 466 409 302 552 497 579 655 653 369 432 400 528 417 337 178 152 111 172 232 207 204 278 336 266 252 238 121 144 118 55
1279 1335 1343 1372 1451 1399 1331 1200 1069 1052 1144 1101 993 952 990 1084 997 967 893 866 928 1007 1020 913 730 631 562 574 544 674 684 687 771 577 351 352 329 342 394 395 627 595 589 595 286 202 284 440 624 429 427 408 439 461 426 501 726 693 604 379 641 570 433 459 478 478 504 651 485 338 251 260 317 331 211 279 288 306 277 277 206 96 177 88 37
Wind_Speed
32 34 33 36 35 36 38 38 39 39 37 36 36 37 38 38 39 40 40 39 37 35 34 34 34 34 34 34 33 32 32 33 32 30 31 31 30 28 25 23 22 20 20 23 24 25 26 26 27 26 24 22 21 20 19 18 17 18 19 19 19 18 17 17 15 16 16 15 13 11 8 4 4 4 7 10 10 9 9 7 6 6 6 8 11
35 34 32 36 36 37 38 38 39 39 38 37 35 35 36 36 37 38 39 38 36 34 35 34 34 33 33 33 33 31 29 31 30 31 33 33 31 29 27 24 22 21 21 24 26 26 26 26 26 25 24 21 20 19 19 19 19 19 19 19 19 19 18 16 14 15 14 13 12 10 8 8 7 6 9 12 12 12 10 9 8 6 7 11 12
34 33 32 36 38 38 37 38 39 39 38 36 36 35 36 36 35 36 36 36 35 35 35 34 34 33 33 33 32 31 31 33 31 30 32 35 33 31 28 25 23 22 22 25 26 27 27 27 27 26 24 22 20 19 19 20 20 20 19 19 19 18 18 17 14 15 13 12 14 15 12 10 9 10 12 13 13 13 12 11 10 9 7 11 10
34 32 31 35 38 35 37 38 38 38 37 36 35 35 35 35 35 35 36 36 34 34 34 33 33 33 33 32 32 32 33 33 32 31 32 35 34 33 30 26 24 23 23 25 27 27 27 27 26 25 24 21 20 19 19 20 21 20 19 19 18 18 18 18 16 14 13 12 11 11 7 7 8 12 13 13 14 14 13 13 14 13 12 11 11
31 31 31 32 34 35 36 37 37 37 36 36 35 34 34 34 35 35 36 35 34 33 33 33 33 33 33 32 32 32 33 33 33 33 33 34 35 35 31 27 25 24 23 25 26 26 26 27 26 25 23 21 20 18 19 19 20 19 19 19 18 17 16 14 13 12 12 10 7 7 5 6 7 12 14 14 14 14 14 14 15 14 13 11 nan
29 29 29 30 31 33 35 34 35 35 35 34 34 34 34 34 34 35 35 34 32 31 32 33 33 33 33 32 31 31 32 33 33 33 32 33 35 34 31 27 26 26 26 25 25 26 26 25 24 23 21 19 18 18 19 20 20 19 19 17 16 16 15 13 12 11 11 9 6 4 4 5 5 7 13 14 14 14 15 15 16 14 13 12 13
30 28 29 29 28 31 33 33 34 34 34 34 33 33 33 34 34 33 33 32 31 31 31 32 33 32 32 31 30 30 32 33 33 34 33 32 33 34 33 28 25 26 27 27 26 26 25 24 22 21 20 18 17 19 21 21 20 19 17 16 16 15 14 13 12 10 8 5 3 3 4 6 7 7 14 15 17 16 17 16 15 14 15 15 13
28 27 27 26 27 30 32 32 34 34 33 33 33 33 33 34 33 32 31 30 29 29 30 31 31 32 31 30 30 29 30 31 33 33 32 33 32 32 30 27 24 25 27 26 26 26 24 21 21 20 18 16 16 17 20 20 19 17 16 16 15 14 13 12 11 9 nan nan nan nan nan nan 10 10 14 15 16 16 16 16 14 15 15 13 11
26 27 26 26 27 33 30 31 33 34 34 34 33 33 33 32 32 32 30 28 28 29 29 30 31 32 31 31 30 29 29 31 31 31 32 33 30 30 28 25 23 24 25 25 25 25 23 21 20 19 17 17 16 17 20 19 17 17 16 16 15 14 13 11 10 nan nan nan nan nan nan nan nan nan nan nan 17 15 nan nan 16 15 14 13 nan
27 26 26 25 27 32 30 30 32 34 34 34 34 34 34 33 32 31 29 27 27 28 29 30 32 32 31 31 31 30 31 32 32 32 32 34 33 30 27 23 22 24 26 26 26 26 23 22 20 19 18 18 16 18 19 18 17 18 18 17 15 14 13 11 12 9 nan nan nan 9 8 11 11 12 16 17 nan 18 17 16 15 14 15 16 17
28 27 27 26 31 30 30 30 32 34 34 34 34 34 34 33 32 31 28 27 27 27 29 30 31 31 31 31 30 30 32 33 34 35 35 34 34 31 28 23 21 24 26 25 26 25 24 22 21 20 19 19 18 19 19 17 17 18 18 17 16 14 12 10 nan nan nan nan nan nan nan nan nan 13 18 20 20 19 18 18 18 17 17 18 18
28 28 28 28 34 31 31 31 32 34 35 34 35 35 34 33 31 29 28 26 25 27 28 29 29 29 30 30 29 30 31 33 34 35 37 37 35 30 27 22 21 23 26 26 25 25 25 24 22 21 21 20 18 18 19 18 18 18 18 17 16 14 11 nan nan nan nan nan nan nan nan 12 13 15 20 20 21 21 21 21 21 21 22 22 21
29 28 29 31 34 34 33 33 34 35 35 35 34 34 34 33 31 28 27 25 24 25 27 28 28 27 28 28 30 32 34 35 36 35 36 36 33 29 25 20 20 23 26 26 24 24 25 25 24 23 22 21 19 19 18 18 18 18 18 18 17 15 13 nan nan nan nan 10 nan nan 11 12 13 19 20 21 21 21 21 22 22 22 22 22 22
30 31 31 32 32 38 35 35 35 36 36 35 34 33 33 31 29 27 26 25 25 25 26 28 28 28 27 26 28 31 33 35 36 35 37 37 33 29 24 18 18 22 25 25 25 23 24 25 24 24 23 22 20 19 18 18 19 18 19 19 18 16 16 12 nan nan nan nan nan nan 11 10 12 15 18 19 20 20 21 21 22 22 22 22 22
30 33 33 33 35 36 38 34 35 35 35 34 32 30 30 29 28 27 26 26 27 26 26 27 28 28 26 26 29 31 33 35 37 37 37 36 33 29 24 18 17 21 23 25 25 24 23 24 24 24 24 23 21 20 19 19 20 20 20 19 17 16 nan nan nan nan nan nan nan nan 11 12 13 15 17 19 20 21 21 21 21 22 22 22 22
29 30 32 33 35 36 35 37 35 34 33 33 31 30 28 27 27 27 27 28 28 27 26 27 27 28 27 27 30 32 34 37 38 38 35 33 31 28 23 18 17 19 21 23 25 24 22 22 23 24 24 23 22 22 21 21 21 20 20 19 18 17 nan nan 12 11 nan 10 10 11 12 12 13 15 16 19 20 20 20 20 20 20 21 21 21
29 31 31 32 35 36 35 35 37 36 33 32 31 30 28 27 28 28 29 29 29 28 27 27 27 28 29 29 31 32 35 37 38 38 35 31 29 27 23 17 16 17 19 22 24 24 22 21 22 23 24 23 23 22 22 22 22 21 21 20 20 18 16 14 13 12 11 12 10 10 11 12 14 16 17 18 19 20 20 21 21 22 21 22 22
30 31 31 33 34 35 34 34 36 33 31 31 31 30 29 28 29 30 30 29 28 28 27 27 27 29 30 32 32 32 35 37 38 38 35 30 28 25 22 18 15 16 18 21 23 23 22 20 21 24 23 23 23 23 23 23 23 23 22 22 21 19 17 16 15 14 14 13 11 11 11 14 16 16 18 19 20 20 21 21 21 nan nan nan nan
28 29 31 33 34 35 34 31 30 28 28 26 27 28 28 29 29 30 30 28 27 27 28 28 29 31 33 34 33 34 36 39 39 38 36 31 27 24 20 18 15 15 17 19 21 22 22 21 21 24 24 23 23 24 24 24 23 23 23 23 22 19 17 14 15 15 15 13 12 13 13 14 16 17 18 19 20 20 20 20 22 nan 22 nan nan
27 27 28 31 33 34 32 28 26 26 24 24 25 27 30 29 29 30 30 28 28 27 28 30 31 32 35 36 35 34 36 38 40 37 35 32 27 22 19 17 15 15 16 18 20 22 24 24 23 23 24 23 24 24 25 24 23 24 24 23 21 21 15 13 16 15 14 15 14 14 17 16 18 19 18 18 20 nan 21 21 nan nan nan nan nan
25 26 28 28 31 32 31 26 25 26 24 24 24 26 29 31 31 31 31 30 30 30 31 33 33 33 33 34 32 32 34 34 35 34 35 30 28 23 19 17 16 16 17 18 20 22 25 26 26 25 25 24 25 24 24 25 25 24 24 23 21 16 15 15 14 14 14 15 15 16 16 16 nan nan 20 19 nan nan nan nan nan nan nan nan nan
26 26 26 27 29 29 28 27 25 25 25 23 23 23 26 27 29 31 30 31 31 30 31 31 32 31 32 32 31 30 30 31 31 33 30 32 28 24 20 17 16 17 17 18 20 22 25 28 28 29 28 25 28 20 19 24 27 25 22 22 17 15 15 16 15 15 15 14 15 17 18 20 nan nan nan nan nan nan nan nan nan nan nan nan nan
27 27 26 27 27 27 27 25 25 25 26 25 23 23 25 24 27 29 27 30 29 29 29 31 31 30 30 29 29 28 28 28 29 29 29 31 29 25 21 19 18 18 18 19 20 23 24 26 29 30 30 26 20 18 17 19 23 26 21 16 16 16 16 16 15 15 15 14 15 19 nan 19 20 21 nan nan nan nan nan nan nan nan nan nan nan
27 27 28 27 28 29 28 25 24 24 24 23 23 22 22 23 25 26 26 27 29 28 29 31 31 31 30 28 28 27 27 25 28 30 30 29 28 26 21 20 20 18 19 18 20 23 25 26 27 29 28 24 20 18 17 18 22 20 17 16 17 18 18 16 15 15 15 15 16 nan 19 nan nan nan 21 21 nan nan nan nan nan nan nan nan nan
25 26 27 28 29 29 27 24 22 21 22 21 22 22 22 24 25 25 26 27 29 29 29 30 32 32 31 30 28 27 26 26 26 25 24 27 26 22 20 19 17 17 15 16 16 20 21 24 24 24 23 25 23 20 19 20 22 21 19 17 17 18 17 17 16 15 15 15 16 nan nan nan 19 nan nan nan nan nan nan nan nan nan nan nan nan
25 25 27 28 28 28 28 24 21 19 19 19 21 22 23 23 25 25 26 27 28 29 29 30 31 31 30 30 28 27 27 27 25 24 23 24 23 21 21 21 19 18 16 15 15 16 19 22 23 23 23 24 24 22 20 20 21 23 21 18 17 18 18 18 17 16 16 15 16 nan 17 nan nan nan nan nan nan nan nan nan nan nan nan nan nan
25 26 26 26 27 26 27 24 20 17 16 19 22 21 20 21 22 23 24 25 26 27 28 29 30 30 30 30 28 27 27 26 26 23 22 22 21 21 23 22 21 19 17 16 16 16 18 21 22 23 23 24 25 24 22 20 20 23 21 19 17 18 19 19 18 17 16 16 17 16 17 nan nan nan nan nan nan nan nan nan nan nan nan nan nan
25 27 27 25 25 24 25 23 20 18 17 18 19 19 18 18 17 19 20 23 23 23 25 26 29 29 30 29 29 27 26 25 25 23 22 22 22 21 23 22 21 20 19 17 17 17 19 21 22 23 23 23 25 24 22 20 20 20 21 20 20 20 20 18 17 18 18 17 18 18 nan nan nan nan nan nan nan nan nan nan nan nan nan nan nan
25 26 25 23 23 21 24 23 21 20 18 17 16 16 15 13 14 17 18 20 20 19 21 24 26 27 28 29 28 28 26 25 25 23 22 22 23 21 21 22 22 21 20 19 17 17 18 21 22 22 21 22 22 23 23 21 19 19 20 22 22 23 21 19 18 18 17 16 16 nan nan nan nan nan nan nan nan nan nan nan nan nan nan nan nan
24 24 23 20 19 19 19 22 21 19 17 16 15 15 14 15 17 18 17 18 17 18 20 22 24 26 27 28 27 27 26 25 24 23 22 23 23 22 21 22 22 22 20 18 17 16 17 19 21 20 20 20 21 23 23 22 19 20 20 23 24 24 21 18 18 17 15 15 16 nan nan nan 15 12 13 20 21 20 20 20 19 nan nan nan nan
23 23 21 19 17 18 20 19 20 20 19 17 17 16 17 19 20 19 16 15 16 17 18 20 23 25 27 27 26 26 25 24 23 22 21 22 22 22 21 21 22 21 19 18 18 17 17 18 19 19 18 19 21 23 23 22 19 19 21 24 26 24 20 18 17 16 15 14 16 16 18 17 18 17 15 18 20 20 19 19 18 19 20 nan nan
23 22 19 17 16 16 18 18 19 18 19 18 17 18 18 19 17 14 13 13 15 15 16 19 22 24 26 26 24 24 24 23 22 21 20 20 21 21 21 21 21 21 20 19 19 19 17 17 18 19 19 20 23 24 24 22 19 20 23 24 24 22 19 18 17 17 15 16 16 16 17 18 20 21 22 23 23 21 18 16 18 nan nan nan nan
20 19 17 16 15 16 16 15 16 18 17 17 16 16 15 14 11 9 10 11 13 14 16 18 20 22 23 24 23 22 22 21 20 19 19 19 20 20 20 21 21 21 21 20 21 20 19 18 18 19 21 23 25 26 24 22 21 21 22 21 20 19 18 16 17 16 16 16 16 nan 16 16 18 21 23 23 22 20 18 17 12 15 18 nan nan
18 17 16 14 14 15 16 17 17 16 14 12 13 15 11 8 5 6 8 10 12 15 16 17 19 21 20 20 21 20 19 19 19 18 18 18 20 20 21 21 22 21 21 20 19 19 19 19 18 18 22 23 24 25 24 22 20 20 19 18 18 17 17 16 16 17 17 17 16 16 17 15 15 17 20 24 22 21 20 17 14 18 11 16 18
16 16 15 13 13 14 16 17 17 14 12 9 9 10 10 5 4 5 8 10 12 14 15 16 16 18 17 17 17 18 18 18 17 17 17 18 20 21 22 22 23 22 22 20 18 18 19 18 17 17 21 22 24 24 23 21 20 19 17 16 16 17 17 16 16 17 17 17 15 16 16 15 15 16 17 17 22 22 20 18 17 15 18 15 13
15 15 16 15 13 12 14 16 14 12 11 8 7 11 9 6 5 4 6 8 10 11 13 15 14 15 14 14 15 17 17 17 16 16 18 19 19 20 22 23 23 23 22 21 20 20 20 19 18 18 19 20 23 24 22 21 19 19 17 15 16 17 17 17 17 17 17 16 15 15 15 15 15 17 16 16 17 20 20 17 17 17 16 15 14
15 16 15 15 14 14 15 15 14 13 12 8 8 12 11 8 8 6 7 7 8 10 11 14 13 13 12 12 14 16 16 15 15 17 20 19 19 23 22 22 22 21 22 22 20 20 20 20 19 18 19 19 20 23 22 23 21 18 17 16 16 17 16 16 16 15 16 15 15 15 15 16 18 18 17 16 16 16 20 17 15 16 16 16 15
16 16 15 13 14 14 15 16 16 15 14 12 10 10 11 11 11 8 8 8 8 8 9 12 12 12 11 11 14 15 15 15 15 19 20 19 19 21 20 22 22 22 24 23 22 22 22 21 20 18 19 19 19 21 23 24 22 19 17 17 16 15 17 16 15 15 14 15 15 16 17 17 17 17 17 16 15 16 15 16 14 14 15 13 13
19 20 16 15 13 14 17 17 17 16 15 15 16 15 14 15 14 12 9 8 8 9 11 11 11 11 10 12 15 16 17 17 15 19 19 18 18 20 22 20 21 22 24 25 23 22 22 22 21 19 19 19 20 22 23 23 22 19 19 18 16 16 17 14 14 14 16 15 16 17 17 17 17 17 17 16 15 15 14 13 12 12 15 14 12
20 19 18 15 14 14 17 19 18 17 18 17 16 15 15 15 15 15 11 12 10 11 13 13 13 11 10 12 15 16 18 18 15 18 19 18 18 20 20 19 20 23 25 26 27 28 24 22 21 20 20 21 21 24 23 22 21 22 21 19 18 17 16 15 14 14 17 16 14 16 16 17 17 17 16 15 15 15 14 13 12 12 11 15 14
21 21 17 15 14 14 15 18 18 18 18 18 16 15 15 16 17 17 14 16 12 10 13 16 14 12 10 12 17 17 17 17 16 18 19 18 19 19 21 19 20 24 23 24 29 32 28 23 22 20 20 21 21 21 22 21 23 23 23 21 19 18 16 14 15 16 15 16 14 15 16 17 17 17 16 nan nan 14 14 13 13 12 12 12 13
19 21 18 15 13 14 17 18 19 18 18 17 17 16 16 15 16 20 21 21 16 13 15 15 18 14 11 14 20 17 16 15 16 18 18 17 17 20 23 18 18 21 23 27 31 29 27 26 22 23 21 22 20 17 21 23 22 21 21 20 19 nan 20 17 17 16 13 15 14 14 15 15 17 16 nan nan 13 13 15 15 13 13 13 12 12
19 18 17 14 12 12 14 16 18 20 20 19 17 16 16 15 16 21 24 24 21 18 19 18 21 17 10 11 15 20 18 17 18 19 17 17 16 18 22 20 18 21 23 25 23 20 19 19 19 22 22 21 22 18 18 18 21 19 19 18 17 20 nan 15 16 15 14 14 14 12 13 14 15 15 14 13 12 14 15 15 14 15 15 14 13
20 19 18 16 14 14 15 13 16 18 20 20 18 17 16 15 16 20 25 24 26 26 25 25 21 24 14 12 13 17 16 18 21 19 17 16 18 18 17 18 18 20 21 20 15 12 14 16 18 19 24 24 21 20 19 18 20 21 18 14 16 16 20 nan 16 18 15 14 12 12 13 14 15 15 13 12 14 15 15 15 15 15 15 15 15
19 19 19 19 16 14 12 14 13 13 16 19 18 18 17 17 20 23 26 29 31 33 28 22 24 25 21 18 17 20 17 18 20 22 19 21 20 18 17 16 17 17 18 16 13 13 13 16 16 nan 21 23 22 24 23 24 20 18 19 18 19 17 17 20 nan 18 17 17 14 15 13 13 14 14 13 14 16 15 15 16 16 16 15 15 15
19 20 21 20 18 15 13 12 13 14 13 14 16 17 18 20 21 22 25 27 30 35 27 25 27 27 24 21 20 22 23 22 25 24 20 21 21 22 18 16 16 18 16 16 16 17 16 18 17 16 21 21 21 24 24 24 21 19 18 20 20 18 15 17 16 17 17 16 18 16 14 14 15 14 13 15 15 15 14 15 15 15 14 14 14
18 19 19 17 15 14 13 14 15 15 13 13 13 15 16 17 18 19 21 24 27 30 29 30 30 31 28 24 20 23 26 26 28 26 23 19 19 22 20 17 nan nan 18 15 17 17 17 18 19 20 18 20 18 20 18 21 19 15 15 15 17 16 13 17 13 20 18 18 18 17 16 16 15 14 12 13 15 14 14 13 14 14 14 14 14
20 20 18 16 17 15 13 15 15 16 18 20 20 21 19 18 18 17 22 25 27 29 32 30 29 30 31 27 23 21 24 27 26 26 24 25 18 19 18 17 17 17 17 16 14 14 16 14 13 13 13 13 13 16 16 14 11 9 11 11 12 13 11 12 13 16 17 19 18 17 17 17 16 14 10 11 12 13 14 13 13 14 14 15 15
23 23 20 19 20 19 17 15 14 16 18 19 19 20 21 21 20 20 23 26 28 28 29 29 30 30 29 29 28 24 23 26 28 28 28 27 21 18 16 17 17 17 17 15 14 13 13 12 12 12 8 7 10 12 11 8 7 9 11 10 12 13 13 14 14 15 18 18 17 nan nan nan 14 14 12 12 13 14 14 13 13 13 15 16 16
22 24 23 21 22 22 23 21 20 19 18 18 18 19 22 27 28 25 23 24 27 28 28 29 31 32 27 28 28 26 24 25 28 32 31 29 25 16 14 16 18 18 17 14 15 14 10 10 10 9 7 7 9 9 7 7 7 9 10 12 13 15 15 15 14 16 17 15 17 15 17 17 15 14 15 15 15 15 13 14 13 13 15 16 nan
22 24 24 24 23 24 24 24 23 22 21 21 20 20 21 24 25 23 20 20 22 26 29 28 29 28 25 25 25 26 26 25 29 31 30 28 27 19 17 17 19 19 16 14 17 13 9 9 9 8 7 8 9 8 9 7 9 9 9 11 12 14 14 14 14 15 16 16 16 16 15 14 13 16 14 15 14 14 14 15 14 nan 16 nan nan
Wind_Direction
313 313 314 314 316 314 311 309 307 307 308 308 309 311 313 314 314 314 313 314 314 315 318 320 321 323 324 325 328 330 329 328 329 326 319 318 316 314 311 309 304 299 302 299 299 302 303 302 301 306 308 307 305 303 301 298 297 297 294 292 292 290 290 289 292 293 286 276 284 285 285 295 316 275 269 266 260 256 246 247 256 245 239 246 248
317 314 315 315 314 314 311 309 308 307 308 309 309 309 311 312 313 312 311 311 313 316 318 319 320 321 322 324 328 330 328 326 328 328 325 317 316 315 312 309 306 302 299 300 302 301 300 302 303 302 302 300 297 297 298 297 297 295 295 296 295 291 289 287 288 279 272 284 290 289 304 320 299 301 274 264 259 254 249 238 229 243 238 244 243
312 313 313 313 313 313 311 309 307 307 307 308 309 310 312 312 311 309 308 310 314 316 318 318 318 320 322 326 327 326 323 324 327 329 327 318 318 317 316 313 308 304 302 300 302 302 302 301 303 304 301 297 295 294 294 295 295 293 293 291 290 292 294 292 279 278 293 304 303 309 308 291 275 266 264 258 253 252 249 242 240 242 240 241 241
311 312 312 311 313 312 311 309 307 307 307 307 310 311 311 311 311 310 309 311 313 316 316 315 316 320 323 325 325 324 324 324 326 327 325 321 319 319 317 314 310 306 303 302 303 303 301 302 302 302 300 298 296 294 294 295 294 293 291 290 290 289 288 292 296 293 294 291 295 308 315 302 276 261 258 255 254 253 251 251 247 245 246 242 242
310 311 312 313 314 312 310 309 307 307 307 308 310 311 312 311 311 309 309 310 314 316 315 315 316 319 323 323 323 324 324 325 326 326 326 325 324 321 321 317 312 307 305 304 302 303 303 303 304 303 304 303 300 294 293 293 292 291 289 289 288 286 284 282 280 275 270 266 284 299 300 287 262 247 251 254 253 253 254 253 250 245 246 247 nan
310 311 311 312 313 313 311 309 307 307 307 309 310 311 311 311 310 308 308 311 313 314 313 314 315 319 321 321 323 324 323 324 325 325 325 327 325 322 321 316 312 311 308 307 306 306 306 304 304 306 302 301 302 298 297 299 298 295 291 290 287 284 281 276 272 269 265 269 274 294 288 269 263 253 254 257 258 252 253 254 255 254 254 255 253
312 313 312 313 313 314 313 309 308 307 307 309 310 310 309 308 307 306 307 310 312 313 312 313 315 317 318 320 322 321 323 325 324 325 327 327 327 325 325 319 313 314 311 309 308 308 306 302 302 304 302 301 300 304 303 303 300 295 291 290 287 285 281 277 275 271 275 285 282 280 277 270 265 261 261 265 267 265 261 256 255 253 247 244 248
313 313 313 313 315 315 313 311 309 308 308 308 308 308 306 305 305 304 305 308 311 310 310 313 314 314 316 318 319 320 322 323 324 323 324 325 328 326 325 321 313 316 315 310 310 308 305 302 303 305 303 297 297 305 310 307 302 299 298 295 289 284 281 280 279 271 nan nan nan nan nan nan 267 269 270 272 264 260 257 256 258 264 258 253 256
314 315 316 316 316 317 314 311 310 309 307 307 307 305 303 303 302 302 304 307 307 308 309 311 312 313 315 316 316 317 318 320 321 321 321 321 324 324 323 316 313 315 313 311 308 308 306 304 305 303 301 295 297 307 314 310 305 305 302 296 289 286 286 286 289 nan nan nan nan nan nan nan nan nan nan nan 272 266 nan nan 269 263 256 258 nan
318 319 319 318 318 318 315 312 309 307 306 305 304 302 302 300 300 301 303 305 307 307 308 310 310 312 314 314 315 318 319 319 318 318 318 317 316 318 319 314 310 313 314 312 308 307 307 305 304 305 303 298 296 307 312 308 305 307 306 300 295 291 290 287 288 282 nan nan nan 270 267 274 284 284 286 281 nan 271 255 250 256 261 263 263 262
320 321 321 319 319 316 314 311 308 306 304 303 302 301 299 298 299 300 302 304 305 305 306 307 309 309 311 312 314 315 317 319 319 318 316 315 316 320 321 314 304 308 315 315 312 307 307 305 306 307 306 302 300 305 308 305 305 307 306 301 298 295 295 301 nan nan nan nan nan nan nan nan nan 288 289 286 279 267 266 269 268 266 267 267 266
322 322 322 320 317 316 313 310 307 305 304 302 301 299 298 297 297 298 301 301 301 303 304 305 307 308 309 311 312 311 311 312 312 313 313 313 314 318 319 311 305 310 315 317 314 310 307 306 307 308 309 307 304 304 307 306 302 304 304 303 302 302 297 nan nan nan nan nan nan nan nan 279 280 282 288 285 278 274 272 271 268 267 265 262 262
324 324 324 321 321 317 314 312 308 306 303 301 299 298 297 297 298 297 297 296 298 300 301 302 303 304 306 310 309 311 312 311 311 311 310 312 312 318 322 312 305 310 317 318 317 313 308 307 309 310 311 309 306 304 305 304 301 302 302 303 304 304 301 nan nan nan nan 282 nan nan 282 284 285 289 286 282 275 271 270 267 265 263 263 261 260
326 327 326 323 320 320 317 315 310 307 304 301 299 297 297 295 295 293 291 293 294 297 299 301 302 303 306 310 308 312 313 311 311 312 310 310 311 316 320 311 304 311 317 319 319 315 310 309 310 311 311 309 306 303 302 302 301 302 302 303 305 305 303 301 nan nan nan nan nan nan 279 281 283 281 280 280 278 277 272 268 268 267 265 262 260
328 328 327 325 324 322 320 314 309 305 301 298 296 293 292 292 291 291 292 292 293 295 298 299 300 304 308 309 309 312 312 311 311 309 309 310 310 315 318 311 303 310 317 319 318 317 314 312 310 310 309 309 308 304 302 301 303 303 303 303 305 309 nan nan nan nan nan nan nan nan 291 293 286 286 281 281 281 279 277 274 272 270 269 267 265
325 325 325 325 325 321 320 313 306 301 299 297 295 291 289 289 289 290 290 291 292 295 297 297 299 304 308 308 309 312 313 312 308 306 307 307 307 312 315 308 299 306 314 316 316 318 320 318 314 310 310 310 308 306 304 303 304 305 303 303 304 303 nan nan 304 301 nan 294 291 288 288 287 283 285 285 280 278 278 277 276 277 277 275 272 270
321 322 323 325 323 321 317 313 306 300 295 294 292 290 289 290 291 291 291 291 292 297 299 298 300 306 309 309 310 312 311 309 305 305 305 303 304 309 313 305 294 299 309 312 313 318 323 324 319 311 308 309 308 306 304 305 306 306 304 304 303 301 300 304 302 296 292 289 288 286 283 287 288 284 281 280 277 276 278 278 276 274 275 272 271
322 324 324 326 324 321 318 313 307 302 297 295 294 294 294 294 294 294 293 292 294 300 302 301 304 307 309 310 313 313 312 307 303 302 302 302 303 306 309 303 292 292 302 307 310 315 321 323 320 314 308 306 305 303 303 304 305 305 305 303 302 301 299 304 298 293 289 288 281 276 278 279 280 279 278 278 279 278 277 276 279 nan nan nan nan
320 323 325 326 325 322 320 313 308 300 297 293 297 296 295 296 297 297 295 294 297 302 304 306 309 310 310 312 314 314 312 306 303 302 301 303 301 303 305 301 290 288 294 300 305 309 312 317 318 316 310 302 300 300 301 303 304 304 304 305 305 304 305 306 299 295 292 289 288 286 282 284 291 284 281 280 280 276 277 278 274 nan 272 nan nan
318 322 325 327 326 324 320 314 306 300 293 294 298 301 300 301 302 300 298 299 301 302 305 308 310 309 312 314 315 313 311 306 305 303 303 302 302 303 302 296 290 285 287 292 298 302 305 310 313 315 312 301 296 296 298 300 301 302 304 305 305 310 310 302 301 296 292 290 291 291 295 294 287 285 283 279 275 nan 276 275 nan nan nan nan nan
318 326 327 330 328 325 323 313 306 301 298 298 298 302 303 310 308 305 305 305 307 308 310 311 312 313 312 311 310 309 307 304 304 303 303 302 300 301 300 294 287 286 284 285 291 296 299 306 311 310 309 302 296 293 292 295 296 297 300 302 308 311 305 303 302 298 294 297 296 294 297 295 nan nan 289 283 nan nan nan nan nan nan nan nan nan
321 323 326 327 325 324 323 316 307 302 301 299 296 300 306 313 311 311 309 311 313 314 312 309 311 309 311 309 307 303 304 302 302 302 301 301 301 300 298 293 290 288 284 283 287 291 296 303 307 308 307 304 302 296 289 290 294 293 294 302 306 302 306 302 299 297 295 294 295 294 293 291 nan nan nan nan nan nan nan nan nan nan nan nan nan
320 323 323 324 323 321 320 319 311 305 305 304 300 303 310 311 312 310 307 311 312 312 307 307 307 306 306 306 300 300 300 298 299 299 297 296 295 296 295 296 294 293 288 288 288 289 292 298 304 307 306 306 300 298 295 291 291 294 294 294 293 298 302 302 298 294 291 292 294 299 nan 295 294 296 nan nan nan nan nan nan nan nan nan nan nan
321 322 323 324 324 320 321 320 315 308 306 305 305 307 307 309 309 307 305 304 304 303 303 304 303 302 302 300 299 297 296 293 296 295 294 293 291 293 295 296 295 292 292 289 287 284 288 291 296 300 305 305 295 293 292 289 291 294 292 288 289 294 300 301 299 292 287 292 291 nan 293 nan nan nan 296 297 nan nan nan nan nan nan nan nan nan
316 318 320 322 324 318 316 316 312 307 307 302 306 310 308 308 307 302 299 296 295 296 296 298 300 301 300 296 297 295 295 294 294 292 291 291 292 292 294 294 291 289 287 289 289 289 295 298 298 301 299 300 297 288 283 283 288 291 289 287 291 294 295 295 295 292 286 287 287 nan nan nan 298 nan nan nan nan nan nan nan nan nan nan nan nan
312 317 319 320 322 318 315 311 309 306 304 298 299 302 304 302 300 298 294 291 290 291 290 291 294 297 295 296 295 292 292 292 292 291 288 289 290 288 287 287 287 287 287 290 287 283 287 292 295 294 293 293 292 286 279 279 286 288 287 289 292 293 294 295 294 289 284 285 289 nan 288 nan nan nan nan nan nan nan nan nan nan nan nan nan nan
313 316 318 319 319 315 313 309 302 291 294 289 286 293 296 293 294 293 293 289 286 287 286 286 288 288 291 291 290 289 291 290 290 289 286 286 285 283 282 284 285 287 287 290 290 283 283 284 285 286 286 287 286 282 279 276 280 286 289 294 293 290 293 295 292 286 281 280 285 292 292 nan nan nan nan nan nan nan nan nan nan nan nan nan nan
315 318 320 318 318 315 310 306 298 290 283 284 287 291 292 294 292 294 294 288 287 288 285 284 283 284 290 288 289 290 288 288 287 288 285 282 282 279 278 281 284 283 286 288 289 283 282 280 279 281 284 282 281 279 274 272 276 281 287 293 293 289 292 294 289 284 280 277 280 281 nan nan nan nan nan nan nan nan nan nan nan nan nan nan nan
321 323 320 319 318 308 299 305 301 299 293 289 296 295 288 286 293 300 296 292 288 287 283 283 283 285 288 289 293 292 290 288 288 288 284 280 276 280 279 280 280 281 283 286 289 285 282 281 280 281 279 278 276 274 270 267 266 268 277 288 288 287 291 293 291 289 281 272 271 nan nan nan nan nan nan nan nan nan nan nan nan nan nan nan nan
323 322 317 311 312 296 290 298 297 302 296 296 294 292 286 291 302 300 292 287 287 285 288 287 287 288 290 291 294 295 293 289 286 284 284 279 276 279 278 277 277 279 282 285 287 285 281 278 278 277 277 273 271 267 265 264 263 262 275 282 281 285 290 291 293 291 282 272 268 nan nan nan 285 260 303 305 304 305 307 306 303 nan nan nan nan
318 320 317 311 302 291 293 294 293 298 297 298 287 281 279 293 301 297 290 289 285 284 285 288 288 288 290 294 297 298 293 288 286 285 281 278 279 280 279 278 277 279 281 281 278 278 276 276 275 273 270 266 262 261 260 262 260 265 271 275 276 280 285 288 289 287 281 273 272 279 289 279 269 271 274 295 301 300 302 305 305 302 297 nan nan
318 317 316 307 300 296 295 295 298 303 299 300 288 283 288 296 296 295 292 285 282 280 282 287 290 293 293 295 296 296 294 291 289 286 284 281 279 280 278 277 278 279 282 283 279 275 275 268 262 263 259 255 254 254 252 256 256 259 268 273 274 276 280 285 285 283 277 272 273 281 287 286 273 266 269 273 281 284 287 294 303 nan nan nan nan
311 316 313 304 296 289 291 295 300 302 305 305 296 287 284 289 299 307 302 289 284 281 284 287 290 290 291 296 296 299 296 292 286 287 285 283 281 283 280 278 277 279 283 284 279 274 270 264 257 255 253 250 253 252 252 252 255 260 268 276 275 277 281 284 281 279 277 272 272 nan 288 290 287 274 271 277 282 286 288 287 285 295 303 nan nan
309 309 310 309 292 277 273 277 289 300 307 302 287 270 271 276 307 327 319 302 289 284 286 288 292 292 294 301 299 302 298 291 288 286 285 283 283 284 280 277 276 279 281 284 283 276 271 267 262 262 254 254 255 257 257 259 260 265 271 275 276 277 280 281 279 278 274 268 268 282 286 285 285 285 282 278 278 282 280 279 292 293 300 297 308
304 305 309 301 292 278 270 274 280 283 285 284 279 241 229 256 295 334 328 309 293 288 288 290 292 293 295 297 306 305 300 296 294 290 289 283 282 280 277 274 275 279 278 283 284 279 273 270 263 263 261 259 259 258 259 262 268 273 274 276 276 277 277 276 277 276 270 262 268 281 284 281 278 280 280 284 282 278 276 270 275 288 294 301 292
299 298 293 292 289 271 263 265 264 255 248 256 255 217 211 269 277 303 315 307 292 287 287 289 287 289 298 304 310 308 301 296 298 295 284 279 277 275 272 272 276 277 279 281 281 280 274 269 262 262 264 268 264 258 257 264 265 270 273 273 272 272 271 271 275 270 261 258 266 280 281 277 278 277 275 277 279 279 269 272 271 277 296 305 311
291 292 294 289 280 268 264 260 249 242 240 236 216 209 229 263 262 283 303 296 284 275 277 274 283 286 296 305 306 301 303 302 300 290 278 280 277 267 272 275 275 278 280 280 282 280 278 270 261 255 256 267 267 264 261 263 265 270 273 270 268 267 270 269 266 260 254 261 270 278 276 276 273 275 278 274 282 286 278 263 265 273 284 303 311
284 281 287 286 275 270 266 259 248 242 243 245 239 231 241 252 253 272 296 298 287 272 270 271 278 288 298 306 299 298 300 296 297 284 278 278 278 281 279 274 276 278 278 278 278 278 277 273 265 257 250 259 265 268 267 264 264 267 267 268 265 265 268 264 255 250 255 264 271 276 273 271 274 277 278 279 277 278 278 281 281 282 272 274 306
275 277 275 273 274 269 264 260 255 250 248 251 257 257 253 251 251 259 278 281 269 263 261 267 277 291 308 311 300 297 299 294 296 283 278 282 285 283 275 280 280 279 278 281 282 283 282 271 268 262 252 252 262 267 267 264 265 265 262 266 265 266 266 263 251 248 258 263 266 272 273 274 272 273 275 275 273 274 276 276 283 284 279 257 274
264 266 268 263 261 266 266 264 257 254 254 252 255 261 265 265 260 259 265 265 254 257 268 270 275 291 309 304 296 303 301 299 300 293 287 285 286 285 287 288 283 277 279 283 285 284 285 279 267 263 259 253 252 262 268 264 260 263 261 257 259 262 263 260 258 257 260 260 265 270 272 268 266 272 275 275 272 272 273 277 277 275 270 270 261
261 260 255 255 252 255 263 263 262 259 254 253 253 259 264 268 263 262 263 264 265 260 267 271 277 280 293 291 281 279 288 293 288 290 291 290 287 290 289 284 284 286 290 287 292 290 281 272 265 258 262 261 259 264 269 267 261 257 256 252 249 249 249 258 263 261 262 262 264 271 269 265 267 276 279 nan nan 275 275 278 275 272 269 273 281
254 262 264 252 249 253 259 261 264 264 261 260 260 260 264 270 267 258 252 256 261 255 250 257 262 266 277 279 280 286 279 285 290 287 285 290 289 289 286 295 298 296 293 292 293 282 264 252 258 260 255 259 255 263 273 268 260 262 263 252 240 nan 235 236 260 262 264 260 262 268 267 268 277 279 nan nan 278 277 277 276 274 268 268 269 269
258 260 263 262 258 259 273 270 270 273 272 270 266 266 266 266 263 253 248 246 251 251 251 257 268 268 257 271 281 285 291 292 291 285 289 288 289 290 290 304 311 297 296 299 288 266 249 252 259 261 260 248 250 249 263 265 258 266 264 254 238 237 nan 241 253 264 266 263 262 267 272 277 285 283 281 279 277 276 275 274 272 269 266 267 266
263 266 266 266 266 258 265 271 271 273 276 281 284 286 285 280 274 268 262 258 257 259 257 258 260 271 275 267 265 274 286 286 286 289 291 294 288 289 293 300 297 291 309 307 301 272 262 256 248 250 262 263 254 259 265 253 245 264 260 244 240 237 244 nan 258 256 256 270 276 277 275 277 283 287 286 288 284 278 277 275 272 267 265 264 263
268 269 269 271 276 279 276 270 268 270 277 282 286 287 287 285 277 271 269 268 267 269 267 276 286 289 287 279 280 284 280 285 288 286 289 288 288 291 292 295 283 293 293 296 298 292 290 264 252 nan 269 265 259 254 263 254 242 245 245 246 238 235 240 253 nan 260 266 269 272 276 280 283 286 291 291 292 286 280 277 276 270 267 267 266 264
272 270 270 271 270 268 263 264 276 277 267 273 278 282 285 287 285 281 279 276 279 281 286 287 282 287 291 288 289 292 292 289 286 286 278 281 289 292 298 295 287 289 285 284 286 283 290 280 270 262 264 256 258 250 255 245 237 239 225 220 228 232 251 261 271 265 268 269 272 276 282 289 284 289 293 294 291 283 279 277 274 269 266 265 266
264 268 273 274 277 277 274 266 255 247 256 265 268 274 278 282 286 282 278 276 277 281 284 283 281 280 279 281 286 291 292 288 286 288 286 283 285 282 285 289 nan nan 274 282 287 288 290 281 259 250 261 258 262 262 253 243 230 234 234 228 228 229 246 275 276 270 273 267 274 274 278 283 286 290 299 296 293 289 280 275 276 271 268 270 268
260 262 264 256 245 248 261 264 266 267 260 254 250 250 250 255 263 270 275 271 270 270 279 284 284 283 280 273 271 280 285 286 284 286 284 272 277 277 279 281 278 282 285 287 293 284 280 285 284 266 244 247 265 256 247 247 251 256 263 259 248 239 266 271 272 282 279 278 272 265 271 278 282 286 293 291 291 290 284 281 279 274 272 272 272
254 256 256 251 244 238 238 243 256 263 268 275 275 273 273 273 276 288 292 282 273 273 279 282 282 282 279 273 276 282 284 288 289 284 278 275 275 272 269 269 272 279 279 280 280 282 282 298 308 292 276 254 265 259 259 260 275 265 272 267 256 253 270 263 269 258 270 276 277 nan nan nan 284 290 291 286 283 278 280 281 275 274 273 274 275
257 254 252 248 244 242 237 236 243 252 262 271 274 280 281 282 288 296 303 293 279 275 281 283 278 276 274 269 270 278 280 286 286 279 276 278 276 268 264 271 273 272 273 275 274 274 284 304 313 305 282 272 256 267 280 269 271 255 268 264 264 262 267 264 269 270 264 272 275 293 290 288 294 293 293 290 287 284 282 279 280 279 276 278 nan
251 250 251 246 244 241 237 237 242 246 249 252 258 270 282 291 298 305 307 299 286 277 277 282 282 278 267 262 268 274 276 281 279 277 279 288 287 288 276 272 269 269 270 267 267 271 272 298 301 297 303 285 253 256 254 249 255 253 268 275 276 276 277 281 280 279 273 270 271 282 282 287 285 288 290 284 281 284 282 278 277 nan 278 nan nan